Home > Time Zones > World Clock > Weather > U.S.A. > Mesa > Past weeks

Flag for U.S.A. Weather past 2 weeks in Mesa, Arizona, U.S.A.

Now
61 °F

Clear.


Feels Like: 61 °F
Forecast: 59 / 83 °F
Wind: 7 mph from Southeast

Location: Williams Gateway Airport

Current Time: May 24, 2015 at 2:19:30 AM

Latest Report: May 24, 2015 at 1:55 AM


Visibility: 10 mi

Pressure: 29.92 "Hg

Humidity: 52%

Dew point: 43 °F

Location of MesaLocation

Historic Weather in Mesa — Graph

°F

Mesa temperature yesterday

Maximum temperature yesterday: 79 °F (at 3:47 PM)
Minimum temperature yesterday: 55 °F (at 3:15 AM)
Average temperature yesterday: 66 °F

Past Weeks' High & Low Weather Summary

 TemperatureHumidityPressure
High142 °F (May 20, 5:47 AM)94% (May 15, 10:51 PM)30.03 "Hg (May 15, 10:51 PM)
Low52 °F (May 9, 4:35 AM)4% (May 20, 5:47 AM)29.75 "Hg (May 11, 5:47 PM)
Average68 °F39%29.91 "Hg
* Reported May 9 1:15 AM — May 24 1:15 AM, Mesa, Weather by CustomWeather, © 2015

Note: Actual official high and low records may vary slightly from our data, if they occured in-between our weather recording intervals... More about our weather records

Advertising

Mesa weather history for previous 24 hours

 ConditionsComfort  
Time TempWeatherWind HumidityBarometerVisibility
1:15 AM
Sun, May 24
63 °FClear.6 mph45%29.92 "Hg10 mi
12:55 AM63 °FClear.5 mph45%29.92 "Hg10 mi
12:35 AM63 °FClear.5 mph45%29.93 "Hg10 mi
12:15 AM64 °FClear.No wind46%29.93 "Hg10 mi
11:47 PM
Sat, May 23
64 °FPassing clouds.3 mph46%29.93 "Hg20 mi
10:47 PM70 °FPassing clouds.No wind33%29.93 "Hg20 mi
9:47 PM72 °FPassing clouds.No wind29%29.93 "Hg20 mi
8:49 PM73 °FPassing clouds.7 mph27%29.92 "Hg20 mi
7:50 PM75 °FClear.7 mph24%29.91 "Hg20 mi
6:47 PM77 °FPassing clouds.10 mph22%29.90 "Hg35 mi
5:47 PM79 °FPassing clouds.5 mph21%29.90 "Hg45 mi
3:47 PM79 °FPassing clouds.9 mph20%29.93 "Hg35 mi
2:47 PM77 °FPassing clouds.5 mph22%29.96 "Hg35 mi
1:47 PM77 °FScattered clouds.14 mph24%29.99 "Hg20 mi
12:47 PM73 °FPassing clouds.No wind27%30.00 "Hg35 mi
11:47 AM73 °FPassing clouds.9 mph27%30.02 "Hg35 mi
10:54 AM72 °FPassing clouds.3 mph29%30.03 "Hg35 mi
9:47 AM70 °FPassing clouds.3 mph33%30.03 "Hg20 mi
8:47 AM66 °FPassing clouds.No wind40%30.03 "Hg35 mi
7:47 AM63 °FSunny.6 mph49%30.02 "Hg20 mi
6:47 AM59 °FSunny.3 mph51%30.01 "Hg20 mi
5:47 AM55 °FPassing clouds.7 mph59%29.99 "Hg45 mi
4:47 AM55 °FPassing clouds.6 mph63%29.98 "Hg20 mi
4:15 AM55 °FClear.6 mph59%29.97 "Hg10 mi
3:55 AM55 °FClear.6 mph59%29.97 "Hg10 mi
3:15 AM55 °FClear.5 mph59%29.96 "Hg10 mi
2:55 AM57 °FClear.5 mph55%29.96 "Hg10 mi
2:35 AM57 °FClear.5 mph55%29.96 "Hg10 mi
2:15 AM59 °FClear.3 mph48%29.96 "Hg10 mi
Weather by CustomWeather, © 2015

See weather overviewHow to use our weather pages